Location: Larch Mountain
(45.5297°N, 122.0872°W)
Time: 23:50:44
(UTC-07:00)

ISS - All Passes

Search period start: 23 June 2017 00:00
Search period end: 03 July 2017 00:00
Orbit: 401 x 408 km, 51.6° (Epoch: 24 June)

Date Brightness Start Highest point End Pass type
(mag) Time Alt. Az. Time Alt. Az. Time Alt. Az.
23 Jun - 10:34:40 10° SW 10:37:55 66° SSE 10:41:12 10° ENE daylight
23 Jun - 12:11:33 10° W 12:14:36 34° NNW 12:17:39 10° NE daylight
23 Jun - 13:48:44 10° NW 13:51:40 28° N 13:54:35 10° ENE daylight
23 Jun - 15:25:14 10° WNW 15:28:32 70° NNE 15:31:50 10° ESE daylight
23 Jun - 17:02:16 10° W 17:04:44 20° SW 17:07:12 10° S daylight
24 Jun - 09:42:46 10° SSW 09:45:49 37° SE 09:48:53 10° ENE daylight
24 Jun - 11:19:07 10° W 11:22:16 44° NNW 11:25:28 10° NE daylight
24 Jun - 12:56:25 10° WNW 12:59:17 27° N 13:02:10 10° ENE daylight
24 Jun - 14:33:04 10° NW 14:36:17 47° NNE 14:39:29 10° E daylight
24 Jun - 16:09:41 10° WNW 16:12:42 33° SW 16:15:43 10° SSE daylight
25 Jun - 08:51:12 10° S 08:53:46 21° SE 08:56:21 10° E daylight
25 Jun - 10:26:45 10° WSW 10:30:00 64° NNW 10:33:18 10° ENE daylight
25 Jun - 12:04:00 10° WNW 12:06:54 28° N 12:09:48 10° NE daylight
25 Jun - 13:40:52 10° NW 13:43:58 35° NNE 13:47:02 10° E daylight
25 Jun - 15:17:20 10° WNW 15:20:35 59° SW 15:23:50 10° SE daylight
26 Jun - 08:00:22 10° SSE 08:01:47 12° SE 08:03:12 10° ESE daylight
26 Jun - 09:34:30 10° SW 09:37:46 80° SSE 09:41:04 10° ENE daylight
26 Jun - 11:11:31 10° WNW 11:14:31 31° NNW 11:17:31 10° NE daylight
26 Jun - 12:48:38 10° NW 12:51:35 29° N 12:54:33 10° ENE daylight
26 Jun - 14:25:05 10° WNW 14:28:23 82° NNE 14:31:42 10° ESE daylight
26 Jun - 16:02:23 10° W 16:04:30 16° SW 16:06:37 10° S daylight
27 Jun - 08:42:28 10° SW 08:45:36 45° SE 08:48:46 10° ENE daylight
27 Jun - 10:19:01 10° W 10:22:08 39° NNW 10:25:17 10° NE daylight
27 Jun - 11:56:17 10° WNW 11:59:10 27° N 12:02:03 10° ENE daylight
27 Jun - 13:32:53 10° NW 13:36:07 53° NNE 13:39:22 10° ESE daylight
27 Jun - 15:09:35 10° W 15:12:28 27° SW 15:15:19 10° SSE daylight
28 Jun - 07:50:43 10° SSW 07:53:30 26° SE 07:56:17 10° E daylight
28 Jun - 09:26:34 10° WSW 09:29:48 55° NNW 09:33:04 10° ENE daylight
28 Jun - 11:03:52 10° WNW 11:06:45 27° N 11:09:37 10° ENE daylight
28 Jun - 12:40:39 10° NW 12:43:47 38° NNE 12:46:54 10° E daylight
28 Jun - 14:17:09 10° WNW 14:20:20 48° SW 14:23:31 10° SE daylight
29 Jun - 06:59:29 10° S 07:01:27 15° SE 07:03:25 10° E daylight
29 Jun - 08:34:15 10° WSW 08:37:31 86° NNW 08:40:50 10° ENE daylight
29 Jun - 10:11:22 10° WNW 10:14:18 30° N 10:17:17 10° NE daylight
29 Jun - 11:48:23 10° NW 11:51:23 31° N 11:54:22 10° ENE daylight
29 Jun - 13:24:49 10° WNW 13:28:08 84° SSW 13:31:25 10° ESE daylight
29 Jun - 15:02:31 10° WSW 15:04:09 13° SW 15:05:46 10° SSW daylight
30 Jun - 07:42:05 10° SW 07:45:17 56° SSE 07:48:31 10° ENE daylight
30 Jun - 09:18:49 10° W 09:21:54 36° NNW 09:24:58 10° NE daylight
30 Jun - 10:56:02 10° WNW 10:58:56 27° N 11:01:50 10° ENE daylight
30 Jun - 12:32:34 10° WNW 12:35:51 61° NNE 12:39:06 10° ESE daylight
30 Jun - 14:09:26 10° W 14:12:06 23° SW 14:14:45 10° SSE daylight
01 Jul - 06:50:10 10° SSW 06:53:07 31° SE 06:56:04 10° ENE daylight
01 Jul - 08:26:19 10° W 08:29:30 48° NNW 08:32:43 10° NE daylight
01 Jul - 10:03:37 10° WNW 10:06:29 27° N 10:09:21 10° ENE daylight
01 Jul - 11:40:19 10° NW 11:43:29 42° NNE 11:46:39 10° E daylight
01 Jul - 13:16:52 10° WNW 13:19:58 39° SW 13:23:04 10° SSE daylight
02 Jul - 05:58:40 10° S 06:01:00 18° SE 06:03:21 10° E daylight
02 Jul - 07:33:54 10° WSW 07:37:10 73° NNW 07:40:27 10° ENE daylight
02 Jul - 09:11:05 10° WNW 09:14:00 28° N 09:16:55 10° NE daylight
02 Jul - 10:48:02 10° NW 10:51:04 33° NNE 10:54:05 10° E daylight
02 Jul - 12:24:28 10° WNW 12:27:44 70° SSW 12:31:00 10° SE daylight
02 Jul - 14:02:56 10° WSW 14:03:41 11° SW 14:04:25 10° SW daylight
